TimeEDT,TemperatureF,Dew PointF,Humidity,Sea Level PressureIn,VisibilityMPH,Wind Direction,Wind SpeedMPH,Gust SpeedMPH,PrecipitationIn,Events,Conditions,WindDirDegrees,DateUTC
12:55 AM,46.9,45.0,93,29.90,3.0,ESE,6.9,-,N/A,,Overcast,110,2013-04-30 04:55:00
1:05 AM,46.9,45.0,93,29.89,2.5,East,5.8,-,N/A,,Overcast,100,2013-04-30 05:05:00
1:21 AM,46.9,45.0,93,29.89,1.2,East,8.1,-,N/A,,Overcast,100,2013-04-30 05:21:00
1:36 AM,46.9,45.0,93,29.89,0.8,East,6.9,-,N/A,,Mist,100,2013-04-30 05:36:00
1:55 AM,46.9,45.0,93,29.90,0.5,East,6.9,-,N/A,Fog,Fog,100,2013-04-30 05:55:00
2:55 AM,46.9,45.0,93,29.89,0.2,East,5.8,-,N/A,Fog,Fog,100,2013-04-30 06:55:00
3:55 AM,48.0,46.0,93,29.89,0.5,ESE,9.2,-,N/A,Fog,Fog,120,2013-04-30 07:55:00
4:55 AM,46.9,46.0,97,29.90,0.5,ESE,5.8,-,N/A,Fog,Fog,110,2013-04-30 08:55:00
5:55 AM,46.9,46.0,97,29.88,0.5,ESE,10.4,17.3,N/A,Fog,Fog,110,2013-04-30 09:55:00
6:55 AM,48.0,46.0,93,29.88,0.2,East,9.2,-,N/A,Fog,Fog,100,2013-04-30 10:55:00
7:55 AM,48.0,46.9,96,29.89,0.2,Variable,6.9,-,N/A,Fog,Fog,0,2013-04-30 11:55:00
8:55 AM,48.0,46.0,93,29.90,1.0,ESE,9.2,20.7,N/A,,Mist,110,2013-04-30 12:55:00
9:26 AM,48.0,46.0,93,29.89,2.5,ESE,9.2,-,N/A,,Overcast,110,2013-04-30 13:26:00
9:34 AM,48.0,46.0,93,29.88,4.0,ESE,10.4,17.3,N/A,,Overcast,110,2013-04-30 13:34:00
9:55 AM,48.0,45.0,89,29.91,5.0,ESE,10.4,18.4,N/A,,Overcast,120,2013-04-30 13:55:00
12:55 PM,54.0,48.0,80,29.85,7.0,SE,13.8,21.9,0.00,,Mostly Cloudy,130,2013-04-30 16:55:00
1:08 PM,54.0,48.0,80,29.84,7.0,ESE,10.4,19.6,N/A,,Scattered Clouds,110,2013-04-30 17:08:00
1:55 PM,55.9,48.9,77,29.84,8.0,ESE,12.7,-,N/A,,Overcast,110,2013-04-30 17:55:00
2:07 PM,55.9,48.9,77,29.84,8.0,ESE,10.4,18.4,N/A,,Mostly Cloudy,120,2013-04-30 18:07:00
2:55 PM,59.0,52.0,78,29.84,10.0,SE,18.4,26.5,N/A,,Overcast,130,2013-04-30 18:55:00
3:09 PM,60.1,52.0,75,29.83,10.0,SE,20.7,28.8,N/A,,Overcast,140,2013-04-30 19:09:00
3:55 PM,60.1,51.1,72,29.83,10.0,ESE,9.2,19.6,N/A,,Overcast,120,2013-04-30 19:55:00
4:14 PM,60.1,51.1,72,29.82,10.0,ESE,12.7,20.7,N/A,,Scattered Clouds,120,2013-04-30 20:14:00
4:55 PM,61.0,51.1,70,29.81,10.0,ESE,13.8,19.6,N/A,,Scattered Clouds,120,2013-04-30 20:55:00
5:55 PM,61.0,51.1,70,29.81,10.0,ESE,15.0,21.9,N/A,,Clear,110,2013-04-30 21:55:00
6:55 PM,59.0,50.0,72,29.83,10.0,ESE,12.7,20.7,N/A,,Clear,110,2013-04-30 22:55:00
7:55 PM,57.0,48.9,74,29.87,9.0,ESE,13.8,18.4,N/A,,Overcast,110,2013-04-30 23:55:00
8:55 PM,55.9,48.0,75,29.88,9.0,East,8.1,-,N/A,,Scattered Clouds,90,2013-05-01 00:55:00
9:55 PM,54.0,46.9,77,29.91,9.0,East,9.2,-,N/A,,Clear,100,2013-05-01 01:55:00
10:55 PM,53.1,46.9,80,29.92,8.0,East,6.9,-,N/A,,Clear,100,2013-05-01 02:55:00
11:55 PM,52.0,46.0,80,29.91,9.0,East,5.8,-,N/A,,Clear,100,2013-05-01 03:55:00